Location: Camaret
(48.2753°N, 4.5961°W)
Time: 11:42:33
(UTC+00:00)

X-37B - Pass Details

Date: 28 January 2021
Orbit: 383 x 391 km, 45.0° (Epoch: 27 February)

Event Time Altitude Azimuth Distance (km) Brightness Sun altitude
Rises 17:42:18 0° 265° (W) 2,270 6.3 -5.5°
Reaches altitude 10° 17:44:25 10° 259° (WSW) 1,417 5.2 -5.8°
Maximum altitude 17:47:29 45° 185° (S) 540 1.5 -6.3°
Drops below altitude 10° 17:50:33 10° 111° (ESE) 1,420 3.0 -6.8°
Enters shadow 17:51:36 - 107° (ESE) 1,837 3.5 -7.0°
